Location: Brabourne
(51.1333°N, 1.0000°E)
Time: 17:14:23
(UTC+00:00)

Cosmos 2369 Rocket - Visible Passes

Search period start: 21 October 2021 00:00
Search period end: 31 October 2021 00:00
Orbit: 830 x 851 km, 71.0° (Epoch: 20 October)

Date Brightness Start Highest point End Pass type
(mag) Time Alt. Az. Time Alt. Az. Time Alt. Az.
21 Oct 4.4 19:55:23 10° N 19:57:40 13° NNE 19:57:40 13° NNE visible
21 Oct 4.8 21:38:35 10° NNW 21:39:27 14° NNW 21:39:27 14° NNW visible
22 Oct 4.4 19:40:02 10° N 19:42:23 12° NNE 19:42:30 12° NNE visible
22 Oct 4.7 21:23:13 10° NNW 21:24:17 15° NNW 21:24:17 15° NNW visible
23 Oct 4.3 19:24:41 10° N 19:26:54 12° NNE 19:27:21 12° NNE visible
23 Oct 4.6 21:07:51 10° NNW 21:09:07 16° N 21:09:07 16° N visible
24 Oct 4.6 17:24:15 10° NNW 17:24:34 10° N 17:24:52 10° N visible
24 Oct 4.3 19:09:21 10° N 19:11:26 12° NNE 19:12:12 12° NNE visible
24 Oct 4.4 20:52:28 10° NNW 20:53:59 17° N 20:53:59 17° N visible
25 Oct 4.3 18:54:00 10° N 18:55:59 12° NNE 18:57:05 11° NNE visible
25 Oct 4.3 20:37:06 10° NNW 20:38:51 18° N 20:38:51 18° N visible
26 Oct 4.3 18:38:40 10° N 18:40:31 11° NNE 18:41:58 11° NNE visible
26 Oct 4.2 20:21:44 10° NNW 20:23:45 19° N 20:23:45 19° N visible
27 Oct 4.3 18:23:20 10° N 18:25:03 11° NNE 18:26:46 10° NE visible
27 Oct 4.1 20:06:22 10° NNW 20:08:39 20° N 20:08:39 20° N visible
27 Oct 5.0 21:50:08 10° NNW 21:50:26 12° NNW 21:50:26 12° NNW visible
28 Oct 4.3 18:07:59 10° N 18:09:35 11° NNE 18:11:10 10° NNE visible
28 Oct 3.9 19:51:00 10° NNW 19:53:34 21° N 19:53:34 21° N visible
28 Oct 4.9 21:34:44 10° NNW 21:35:21 13° NNW 21:35:21 13° NNW visible
29 Oct 4.3 17:52:40 10° N 17:54:06 11° NNE 17:55:34 10° NNE visible
29 Oct 3.8 19:35:38 10° NNW 19:38:30 22° NNE 19:38:30 22° NNE visible
29 Oct 4.7 21:19:21 10° NNW 21:20:17 15° NNW 21:20:17 15° NNW visible
30 Oct 4.3 17:37:20 10° N 17:38:38 11° NNE 17:39:57 10° NNE visible
30 Oct 3.7 19:20:16 10° NNW 19:23:28 23° NNE 19:23:28 23° NNE visible
30 Oct 4.6 21:03:57 10° NNW 21:05:15 18° NNW 21:05:15 18° NNW visible
